Location: Alphen
(52.1351°N, 4.6549°E)
Time: 02:02:33
(UTC+00:00)

Meteor 2-13 Rocket - Pass Details

Date: 27 January 2021
Orbit: 936 x 957 km, 82.5° (Epoch: 26 February)

Event Time Altitude Azimuth Distance (km) Brightness Sun altitude
Rises 04:10:48 0° 349° (N) 3,653 7.5 -30.2°
Reaches altitude 10° 04:13:20 10° 351° (N) 2,702 6.8 -29.8°
Maximum altitude 04:19:32 78° 78° (ENE) 984 4.5 -28.9°
Drops below altitude 10° 04:25:40 10° 165° (SSE) 2,676 6.9 -27.9°
Sets 04:28:09 0° 167° (SSE) 3,615 7.6 -27.6°
